SCP
0 0 0 0 0 0 0 0 0 0 0 0 0 0 0 0 0 0 0 0 0 0 0 0 0 0 0 0 0 0 0 0 0 0 0 0 0 0 0 0 0 0 0
0 0 0 0 0 0 0 0 0 0 0 0 0 0 0 0 0 0 0 0 0 0 0 0 0 0 0 0 0 0 0 0 0 0 0 0 0 0 0 0 0 0 0
0 0 0 0 0 0 0 0 0 0 0 0 0 0 0 0 0 0 0 0 0 0 0 0 0 0 0 0 0 0 0 0 0 0 0 0 0 0 0 0 0 0 0
0 0 0 0 0 0 0 0 0 0 0 0 0 0 0 0 0 0 0 0 0 0 0 0 0 0 0 0 0 0 0 0 0 0 0 0 0 0 0 0 0 0 0
0 0 0 0 0 0 0 0 0 0 0 0 0 0 0 0 0 0 0 0 0 0 0 0 0 0 0 0 0 0 0 0 0 0 0 0 0 0 0 0 0 0 0
0 0 0 0 0 0 0 0 0 0 0 0 0 0 0 0 0 0 0 0 0 0 0 0 0 0 0 0 0 0 0 0 0 0 0 0 0 0 0 0 0 0 0
0 0 0 0 0 0 0 0 0 0 0 0 0 0 0 0 0 0 0 0 0 0 0 0 0 0 0 0 0 0 0 0 0 0 0 0 0 0 0 0 0 0 0
0 0 0 0 0 0 0 0 0 0 0 0 0 0 0 0 0 0 0 0 0 0 0 0 0 0 0 0 0 0 0 0 0 0 0 0 0 0 0 0 0 0 0
0 0 0 0 0 0 0 0 0 0 0 0 0 0 0 0 0 0 0 0 0 0 0 0 0 0 0 0 0 0 0 0 0 0 0 0 0 0 0 0 0 0 0
0 0 0 0 0 0 0 0 0 0 0 0 0 0 0 0 0 0 0 0 0 0 0 0 0 0 0 0 0 0 0 0 0 0 0 0 0 0 0 0 0 0 0
0 0 0 0 0 0 0 0 0 0 0 0 0 0 0 0 0 0 0 0 0 0 0 0 0 0 0 0 0 0 0 0 0 0 0 0 0 0 0 0 0 0 0
0 0 0 0 0 0 0 0 0 0 0 0 0 0 0 0 0 0 0 0 0 0 0 0 0 0 0 0 0 0 0 0 0 0 0 0 0 0 0 0 0 0 0
0 0 0 0 0 0 0 0 0 0 0 0 0 0 0 0 0 0 0 0 0 0 0 0 0 0 0 0 0 0 0 0 0 0 0 0 0 0 0 0 0 0 0
0 0 0 0 0 0 0 0 0 0 0 0 0 0 0 0 0 0 0 0 0 0 0 0 0 0 0 0 0 0 0 0 0 0 0 0 0 0 0 0 0 0 0
0 0 0 0 0 0 0 0 0 0 0 0 0 0 0 0 0 0 0 0 0 0 0 0 0 0 0 0 0 0 0 0 0 0 0 0 0 0 0 0 0 0 0
0 0 0 0 0 0 0 0 0 0 0 0 0 0 0 0 0 0 0 0 0 0 0 0 0 0 0 0 0 0 0 0 0 0 0 0 0 0 0 0 0 0 0
0 0 0 0 0 0 0 0 0 0 0 0 0 0 0 0 0 0 0 0 0 0 0 0 0 0 0 0 0 0 0 0 0 0 0 0 0 0 0 0 0 0 0
0 0 0 0 0 0 0 0 0 0 0 0 0 0 0 0 0 0 0 0 0 0 0 0 0 0 0 0 0 0 0 0 0 0 0 0 0 0 0 0 0 0 0
0 0 0 0 0 0 0 0 0 0 0 0 0 0 0 0 0 0 0 0 0 0 0 0 0 0 0 0 0 0 0 0 0 0 0 0 0 0 0 0 0 0 0
0 0 0 0 0 0 0 0 0 0 0 0 0 0 0 0 0 0 0 0 0 0 0 0 0 0 0 0 0 0 0 0 0 0 0 0 0 0 0 0 0 0 0
0 0 0 0 0 0 0 0 0 0 0 0 0 0 0 0 0 0 0 0 0 0 0 0 0 0 0 0 0 0 0 0 0 0 0 0 0 0 0 0 0 0 0
0 0 0 0 0 0 0 0 0 0 0 0 0 0 0 0 0 0 0 0 0 0 0 0 0 0 0 0 0 0 0 0 0 0 0 0 0 0 0 0 0 0 0
0 0 0 0 0 0 0 0 0 0 0 0 0 0 0 0 0 0 0 0 0 0 0 0 0 0 0 0 0 0 0 0 0 0 0 0 0 0 0 0 0 0 0
0 0 0 0 0 0 0 0 0 0 0 0 0 0 0 0 0 0 0 0 0 0 0 0 0 0 0 0 0 0 0 0 0 0 0 0 0 0 0 0 0 0 0
0 0 0 0 0 0 0 0 0 0 0 0 0 0 0 0 0 0 0 0 0 0 0 0 0 0 0 0 0 0 0 0 0 0 0 0 0 0 0 0 0 0 0
0 0 0 0 0 0 0 0 0 0 0 0 0 0 0 0 0 0 0 0 0 0 0 0 0 0 0 0 0 0 0 0 0 0 0 0 0 0 0 0 0 0 0
Wind_Speed_500mb
9 8 7 7 7 6 6 4 2 1 2 3 3 3 2 2 4 7 11 15 18 23 24 25 25 23 24 26 24 23 22 20 25 27 32 35 37 35 33 35 36 31 29
12 11 9 8 8 8 7 6 5 2 1 1 2 3 4 4 6 7 11 15 20 22 22 22 23 24 24 23 22 22 24 25 25 31 31 33 35 32 32 32 34 35 39
16 15 13 13 12 10 9 8 6 5 5 3 4 4 5 7 9 11 13 16 19 18 20 23 22 21 22 24 24 26 28 30 32 34 33 32 33 36 37 37 38 40 43
24 21 20 19 19 15 14 13 10 8 6 7 7 8 12 15 13 12 15 16 13 17 19 19 20 23 28 29 24 24 25 28 31 34 36 39 40 42 45 46 46 46 47
31 29 25 22 22 17 15 12 14 12 11 12 14 15 14 12 12 13 16 13 12 15 19 20 25 24 26 27 24 26 27 30 30 33 37 40 41 44 47 48 49 49 50
36 36 32 31 29 29 23 23 21 19 16 16 17 10 11 14 16 16 14 14 11 18 17 25 25 29 28 26 24 23 25 28 32 34 35 39 42 44 47 50 52 54 53
41 39 36 40 35 30 19 25 22 16 15 15 15 17 14 14 17 20 15 18 12 14 17 23 28 32 29 20 20 23 26 30 31 36 40 42 45 47 50 53 56 57 57
44 39 37 42 34 30 31 30 28 24 20 20 22 20 17 12 20 19 17 18 16 18 21 23 33 30 24 18 21 22 30 33 38 41 43 44 47 49 52 54 56 56 54
49 46 39 41 44 37 37 34 33 33 33 32 29 25 11 13 13 18 20 21 18 19 23 29 32 24 18 19 20 28 35 38 39 39 41 44 48 51 55 58 59 56 50
51 51 43 42 38 38 41 42 43 44 42 42 40 39 38 36 24 15 30 21 22 23 24 29 29 22 16 19 25 33 35 36 37 40 45 48 51 54 58 61 60 54 51
53 53 50 44 45 41 43 36 35 44 45 46 45 48 46 43 40 43 29 27 24 25 27 38 22 20 18 17 27 31 34 36 38 41 44 49 53 57 60 64 66 66 62
60 59 57 54 48 48 38 37 35 34 40 42 44 44 45 42 42 31 36 31 27 24 28 35 22 22 20 21 33 35 32 33 35 40 43 48 54 59 62 64 66 68 69
68 63 58 62 60 55 47 42 43 40 37 44 46 44 43 39 35 31 30 31 35 27 31 32 25 22 20 27 33 28 25 26 31 38 42 47 51 53 57 60 65 67 70
70 63 55 57 58 58 58 54 50 45 41 40 43 44 41 37 34 35 36 30 27 26 30 30 24 23 21 26 25 21 19 22 28 33 38 42 46 51 56 60 65 68 69
69 65 61 56 60 64 65 60 57 49 43 44 43 43 39 41 35 34 35 33 28 30 31 30 29 24 23 24 19 17 16 19 23 30 35 41 48 52 56 61 65 64 66
58 55 56 59 61 65 63 64 61 51 40 38 40 40 41 38 34 31 32 33 33 29 26 33 32 27 28 24 18 17 17 17 23 30 37 42 48 51 56 59 62 64 66
64 61 59 59 56 62 63 64 59 50 41 41 43 42 40 36 37 31 38 32 29 27 29 29 28 31 27 24 20 17 18 21 24 30 37 40 49 52 51 54 58 61 64
66 62 63 64 63 61 58 63 59 48 40 47 44 42 39 41 39 34 31 30 27 24 25 27 31 29 24 23 21 19 19 25 31 35 36 40 50 50 50 47 53 60 60
61 63 63 58 56 55 56 61 53 47 39 42 42 40 38 38 33 34 30 26 23 22 27 30 30 27 25 25 23 23 24 26 34 42 37 42 52 51 49 45 51 56 51
54 58 57 55 50 51 57 56 52 46 39 41 42 44 39 34 33 30 26 23 23 26 29 29 29 27 27 26 27 29 29 33 35 42 42 47 52 51 46 44 49 53 50
52 53 51 45 43 49 53 52 45 42 41 41 39 38 34 32 29 26 25 25 29 29 27 28 29 27 26 26 30 35 39 40 39 41 47 48 54 54 50 51 49 45 43
42 37 34 40 39 43 36 34 36 38 40 41 36 35 34 31 29 25 28 31 31 28 25 27 25 25 28 31 34 38 43 47 47 38 56 53 57 53 59 58 49 31 43
25 33 33 40 40 36 33 36 35 37 35 35 36 32 30 29 26 28 31 29 28 27 26 27 27 27 28 32 37 39 40 42 45 47 55 59 57 62 62 64 38 31 57
28 33 39 36 42 39 35 33 38 37 36 33 31 29 29 29 29 32 29 27 27 26 26 27 25 27 29 34 38 39 41 43 43 42 48 54 60 69 69 64 38 51 57
34 34 34 44 38 33 30 35 38 37 35 35 35 34 29 35 33 31 29 30 30 29 28 27 26 28 32 36 37 39 37 41 47 47 41 49 65 71 72 60 46 69 63
34 36 38 37 33 31 31 37 38 38 37 39 37 32 37 35 32 31 31 33 32 31 29 27 29 31 34 35 37 37 35 35 40 47 36 54 57 61 62 55 77 69 65
Wind_Direction_500mb
180 180 175 180 190 189 193 186 182 118 90 66 59 53 53 40 17 7 358 355 346 343 341 344 352 349 348 350 351 360 359 345 336 330 328 331 331 328 319 315 321 322 307
208 209 207 213 214 213 213 216 216 228 286 4 353 15 355 337 342 350 342 334 332 339 347 354 355 350 352 351 353 350 349 359 342 337 338 335 332 331 333 326 321 318 311
227 231 232 234 237 238 240 245 243 245 255 265 299 326 327 319 321 324 322 319 318 337 346 348 351 352 353 349 347 346 338 333 338 340 340 339 334 333 333 332 329 329 326
234 236 242 240 243 238 243 246 250 259 279 283 284 297 310 310 310 314 313 313 321 328 347 349 346 346 346 343 339 334 335 335 337 340 340 343 345 342 340 338 338 336 334
236 240 230 239 235 248 239 237 250 256 248 269 282 287 291 302 302 306 311 305 308 326 337 336 331 334 335 335 334 335 342 347 348 347 345 342 340 340 337 336 334 332 329
242 242 235 232 247 252 256 242 240 247 258 271 277 306 292 291 290 288 292 292 294 323 322 324 333 334 335 339 343 345 346 354 349 341 339 340 340 338 334 332 331 331 332
248 247 246 240 245 257 254 242 243 243 256 263 280 300 294 288 283 287 265 279 289 302 305 322 331 325 329 341 342 350 354 342 339 342 342 342 342 340 339 338 336 334 333
250 249 253 246 251 249 242 245 252 254 257 262 262 273 285 252 253 269 260 241 285 281 293 308 323 317 326 337 342 340 337 344 346 347 348 349 350 348 345 342 339 337 337
246 250 253 243 244 244 246 250 254 259 262 260 259 248 231 229 229 233 240 243 253 255 283 304 315 310 318 328 330 337 345 348 351 353 353 354 353 351 348 345 343 345 349
241 244 247 242 240 243 243 245 250 254 260 260 262 259 255 255 251 230 218 241 234 253 273 307 306 303 314 320 332 342 346 348 351 355 359 357 355 355 353 349 349 349 349
241 238 241 242 240 245 248 248 259 258 257 261 263 262 258 258 262 255 219 230 233 237 274 306 297 289 299 319 329 340 345 353 357 359 359 359 359 359 356 356 353 350 348
245 241 239 238 240 242 240 251 262 268 261 262 261 261 262 265 274 252 246 243 248 239 269 295 281 277 301 321 330 343 350 356 357 359 360 359 0 1 357 354 351 350 349
247 246 242 236 238 240 237 243 257 262 267 265 261 260 261 258 257 258 252 253 227 231 263 273 268 281 302 324 334 340 349 354 353 355 357 358 357 354 351 349 349 347 347
257 257 252 243 242 241 241 243 248 253 263 263 257 255 257 254 257 262 253 263 233 242 254 259 272 282 299 317 319 321 335 346 344 350 349 350 350 348 348 347 347 345 344
254 255 253 247 241 241 244 245 245 247 255 258 254 255 254 251 251 252 249 249 236 243 235 248 259 276 292 300 288 298 315 327 332 336 341 343 348 348 346 347 344 341 340
244 247 249 250 242 241 243 246 244 245 250 247 250 250 250 252 246 257 248 239 247 240 229 238 254 271 276 273 263 282 296 309 322 331 341 342 344 343 344 343 339 338 339
235 236 240 241 245 242 241 239 244 239 246 245 248 249 256 251 241 258 243 242 236 237 244 248 256 260 258 246 250 269 290 309 321 332 340 339 338 343 344 340 337 336 339
237 240 238 244 249 246 241 241 230 236 242 246 246 251 261 238 233 239 240 235 237 244 257 266 268 263 250 249 259 278 297 312 326 335 341 338 342 346 343 339 335 335 334
241 241 245 245 246 241 240 233 231 232 239 248 240 260 259 225 235 238 234 238 247 262 270 272 266 259 256 263 273 290 301 320 328 331 338 341 343 341 340 341 333 330 331
243 244 243 245 233 236 231 228 231 234 238 240 248 245 218 230 231 233 237 243 262 271 271 267 259 256 260 273 287 297 308 320 327 328 332 344 335 337 337 338 337 335 332
246 244 242 235 223 225 229 223 227 231 242 241 231 225 231 228 227 234 241 261 271 270 266 260 255 258 268 280 290 304 313 318 325 326 330 332 334 339 339 344 340 334 334
241 231 227 216 217 217 214 232 243 240 231 218 229 229 225 224 229 238 256 265 269 270 264 258 260 267 275 287 300 308 314 320 323 328 323 333 335 338 339 341 343 338 339
226 213 212 222 209 218 229 241 237 228 231 232 224 218 224 229 236 251 260 267 269 266 261 262 266 275 287 299 305 307 309 316 320 332 327 330 332 333 337 340 349 346 345
216 223 212 222 218 228 240 240 230 230 227 220 220 222 225 234 250 252 263 269 269 263 259 262 271 283 295 300 301 305 313 315 320 330 328 325 331 332 335 337 345 351 344
224 216 230 225 225 233 253 241 234 225 219 220 219 223 233 251 248 259 265 267 265 261 263 268 279 288 295 299 300 304 309 315 323 332 330 328 330 329 333 340 339 343 342
239 241 234 234 236 247 248 237 227 226 225 227 226 237 245 246 255 263 266 264 261 261 265 275 283 290 296 295 297 300 307 317 321 330 327 321 324 336 332 330 325 339 340
Wind_Speed_850mb
9 8 7 7 7 6 6 4 2 1 2 3 3 3 2 2 4 7 11 15 18 23 24 25 25 23 24 26 24 23 22 20 25 27 32 35 37 35 33 35 36 31 29
12 11 9 8 8 8 7 6 5 2 1 1 2 3 4 4 6 7 11 15 20 22 22 22 23 24 24 23 22 22 24 25 25 31 31 33 35 32 32 32 34 35 39
16 15 13 13 12 10 9 8 6 5 5 3 4 4 5 7 9 11 13 16 19 18 20 23 22 21 22 24 24 26 28 30 32 34 33 32 33 36 37 37 38 40 43
24 21 20 19 19 15 14 13 10 8 6 7 7 8 12 15 13 12 15 16 13 17 19 19 20 23 28 29 24 24 25 28 31 34 36 39 40 42 45 46 46 46 47
31 29 25 22 22 17 15 12 14 12 11 12 14 15 14 12 12 13 16 13 12 15 19 20 25 24 26 27 24 26 27 30 30 33 37 40 41 44 47 48 49 49 50
36 36 32 31 29 29 23 23 21 19 16 16 17 10 11 14 16 16 14 14 11 18 17 25 25 29 28 26 24 23 25 28 32 34 35 39 42 44 47 50 52 54 53
41 39 36 40 35 30 19 25 22 16 15 15 15 17 14 14 17 20 15 18 12 14 17 23 28 32 29 20 20 23 26 30 31 36 40 42 45 47 50 53 56 57 57
44 39 37 42 34 30 31 30 28 24 20 20 22 20 17 12 20 19 17 18 16 18 21 23 33 30 24 18 21 22 30 33 38 41 43 44 47 49 52 54 56 56 54
49 46 39 41 44 37 37 34 33 33 33 32 29 25 11 13 13 18 20 21 18 19 23 29 32 24 18 19 20 28 35 38 39 39 41 44 48 51 55 58 59 56 50
51 51 43 42 38 38 41 42 43 44 42 42 40 39 38 36 24 15 30 21 22 23 24 29 29 22 16 19 25 33 35 36 37 40 45 48 51 54 58 61 60 54 51
53 53 50 44 45 41 43 36 35 44 45 46 45 48 46 43 40 43 29 27 24 25 27 38 22 20 18 17 27 31 34 36 38 41 44 49 53 57 60 64 66 66 62
60 59 57 54 48 48 38 37 35 34 40 42 44 44 45 42 42 31 36 31 27 24 28 35 22 22 20 21 33 35 32 33 35 40 43 48 54 59 62 64 66 68 69
68 63 58 62 60 55 47 42 43 40 37 44 46 44 43 39 35 31 30 31 35 27 31 32 25 22 20 27 33 28 25 26 31 38 42 47 51 53 57 60 65 67 70
70 63 55 57 58 58 58 54 50 45 41 40 43 44 41 37 34 35 36 30 27 26 30 30 24 23 21 26 25 21 19 22 28 33 38 42 46 51 56 60 65 68 69
69 65 61 56 60 64 65 60 57 49 43 44 43 43 39 41 35 34 35 33 28 30 31 30 29 24 23 24 19 17 16 19 23 30 35 41 48 52 56 61 65 64 66
58 55 56 59 61 65 63 64 61 51 40 38 40 40 41 38 34 31 32 33 33 29 26 33 32 27 28 24 18 17 17 17 23 30 37 42 48 51 56 59 62 64 66
64 61 59 59 56 62 63 64 59 50 41 41 43 42 40 36 37 31 38 32 29 27 29 29 28 31 27 24 20 17 18 21 24 30 37 40 49 52 51 54 58 61 64
66 62 63 64 63 61 58 63 59 48 40 47 44 42 39 41 39 34 31 30 27 24 25 27 31 29 24 23 21 19 19 25 31 35 36 40 50 50 50 47 53 60 60
61 63 63 58 56 55 56 61 53 47 39 42 42 40 38 38 33 34 30 26 23 22 27 30 30 27 25 25 23 23 24 26 34 42 37 42 52 51 49 45 51 56 51
54 58 57 55 50 51 57 56 52 46 39 41 42 44 39 34 33 30 26 23 23 26 29 29 29 27 27 26 27 29 29 33 35 42 42 47 52 51 46 44 49 53 50
52 53 51 45 43 49 53 52 45 42 41 41 39 38 34 32 29 26 25 25 29 29 27 28 29 27 26 26 30 35 39 40 39 41 47 48 54 54 50 51 49 45 43
42 37 34 40 39 43 36 34 36 38 40 41 36 35 34 31 29 25 28 31 31 28 25 27 25 25 28 31 34 38 43 47 47 38 56 53 57 53 59 58 49 31 43
25 33 33 40 40 36 33 36 35 37 35 35 36 32 30 29 26 28 31 29 28 27 26 27 27 27 28 32 37 39 40 42 45 47 55 59 57 62 62 64 38 31 57
28 33 39 36 42 39 35 33 38 37 36 33 31 29 29 29 29 32 29 27 27 26 26 27 25 27 29 34 38 39 41 43 43 42 48 54 60 69 69 64 38 51 57
34 34 34 44 38 33 30 35 38 37 35 35 35 34 29 35 33 31 29 30 30 29 28 27 26 28 32 36 37 39 37 41 47 47 41 49 65 71 72 60 46 69 63
34 36 38 37 33 31 31 37 38 38 37 39 37 32 37 35 32 31 31 33 32 31 29 27 29 31 34 35 37 37 35 35 40 47 36 54 57 61 62 55 77 69 65
Wind_Direction_850mb
180 180 175 180 190 189 193 186 182 118 90 66 59 53 53 40 17 7 358 355 346 343 341 344 352 349 348 350 351 360 359 345 336 330 328 331 331 328 319 315 321 322 307
208 209 207 213 214 213 213 216 216 228 286 4 353 15 355 337 342 350 342 334 332 339 347 354 355 350 352 351 353 350 349 359 342 337 338 335 332 331 333 326 321 318 311
227 231 232 234 237 238 240 245 243 245 255 265 299 326 327 319 321 324 322 319 318 337 346 348 351 352 353 349 347 346 338 333 338 340 340 339 334 333 333 332 329 329 326
234 236 242 240 243 238 243 246 250 259 279 283 284 297 310 310 310 314 313 313 321 328 347 349 346 346 346 343 339 334 335 335 337 340 340 343 345 342 340 338 338 336 334
236 240 230 239 235 248 239 237 250 256 248 269 282 287 291 302 302 306 311 305 308 326 337 336 331 334 335 335 334 335 342 347 348 347 345 342 340 340 337 336 334 332 329
242 242 235 232 247 252 256 242 240 247 258 271 277 306 292 291 290 288 292 292 294 323 322 324 333 334 335 339 343 345 346 354 349 341 339 340 340 338 334 332 331 331 332
248 247 246 240 245 257 254 242 243 243 256 263 280 300 294 288 283 287 265 279 289 302 305 322 331 325 329 341 342 350 354 342 339 342 342 342 342 340 339 338 336 334 333
250 249 253 246 251 249 242 245 252 254 257 262 262 273 285 252 253 269 260 241 285 281 293 308 323 317 326 337 342 340 337 344 346 347 348 349 350 348 345 342 339 337 337
246 250 253 243 244 244 246 250 254 259 262 260 259 248 231 229 229 233 240 243 253 255 283 304 315 310 318 328 330 337 345 348 351 353 353 354 353 351 348 345 343 345 349
241 244 247 242 240 243 243 245 250 254 260 260 262 259 255 255 251 230 218 241 234 253 273 307 306 303 314 320 332 342 346 348 351 355 359 357 355 355 353 349 349 349 349
241 238 241 242 240 245 248 248 259 258 257 261 263 262 258 258 262 255 219 230 233 237 274 306 297 289 299 319 329 340 345 353 357 359 359 359 359 359 356 356 353 350 348
245 241 239 238 240 242 240 251 262 268 261 262 261 261 262 265 274 252 246 243 248 239 269 295 281 277 301 321 330 343 350 356 357 359 360 359 0 1 357 354 351 350 349
247 246 242 236 238 240 237 243 257 262 267 265 261 260 261 258 257 258 252 253 227 231 263 273 268 281 302 324 334 340 349 354 353 355 357 358 357 354 351 349 349 347 347
257 257 252 243 242 241 241 243 248 253 263 263 257 255 257 254 257 262 253 263 233 242 254 259 272 282 299 317 319 321 335 346 344 350 349 350 350 348 348 347 347 345 344
254 255 253 247 241 241 244 245 245 247 255 258 254 255 254 251 251 252 249 249 236 243 235 248 259 276 292 300 288 298 315 327 332 336 341 343 348 348 346 347 344 341 340
244 247 249 250 242 241 243 246 244 245 250 247 250 250 250 252 246 257 248 239 247 240 229 238 254 271 276 273 263 282 296 309 322 331 341 342 344 343 344 343 339 338 339
235 236 240 241 245 242 241 239 244 239 246 245 248 249 256 251 241 258 243 242 236 237 244 248 256 260 258 246 250 269 290 309 321 332 340 339 338 343 344 340 337 336 339
237 240 238 244 249 246 241 241 230 236 242 246 246 251 261 238 233 239 240 235 237 244 257 266 268 263 250 249 259 278 297 312 326 335 341 338 342 346 343 339 335 335 334
241 241 245 245 246 241 240 233 231 232 239 248 240 260 259 225 235 238 234 238 247 262 270 272 266 259 256 263 273 290 301 320 328 331 338 341 343 341 340 341 333 330 331
243 244 243 245 233 236 231 228 231 234 238 240 248 245 218 230 231 233 237 243 262 271 271 267 259 256 260 273 287 297 308 320 327 328 332 344 335 337 337 338 337 335 332
246 244 242 235 223 225 229 223 227 231 242 241 231 225 231 228 227 234 241 261 271 270 266 260 255 258 268 280 290 304 313 318 325 326 330 332 334 339 339 344 340 334 334
241 231 227 216 217 217 214 232 243 240 231 218 229 229 225 224 229 238 256 265 269 270 264 258 260 267 275 287 300 308 314 320 323 328 323 333 335 338 339 341 343 338 339
226 213 212 222 209 218 229 241 237 228 231 232 224 218 224 229 236 251 260 267 269 266 261 262 266 275 287 299 305 307 309 316 320 332 327 330 332 333 337 340 349 346 345
216 223 212 222 218 228 240 240 230 230 227 220 220 222 225 234 250 252 263 269 269 263 259 262 271 283 295 300 301 305 313 315 320 330 328 325 331 332 335 337 345 351 344
224 216 230 225 225 233 253 241 234 225 219 220 219 223 233 251 248 259 265 267 265 261 263 268 279 288 295 299 300 304 309 315 323 332 330 328 330 329 333 340 339 343 342
239 241 234 234 236 247 248 237 227 226 225 227 226 237 245 246 255 263 266 264 261 261 265 275 283 290 296 295 297 300 307 317 321 330 327 321 324 336 332 330 325 339 340